DELTA 1 DEB, 10198

Orbit data source: Space-Track

DELTA 1 DEB, 10198 is space debris in LEO originally from a launch on Thu, 14 Jul 1977 UTC launched from the Air Force Eastern Test Range (AFETR). Debris objects in space refer to the collection of defunct objects orbiting the Earth. Examples of debris include non-operational satellites, rocket bodies, and fragments generated from explosions, collisions, or faulty payload assembly.

Loading next visibility...
Identifier
10198, 1977-065AB
Orbit
LEO
Country
Flag of USUS
Related business
Manufacturer
Unknown
Mission
Spacecraft
Bus & Motor
Unknown
Mass
Unknown
Launch date (UTC)
1977-07-14 (48 years ago)
Launch vehicle
Unknown
Launch site
Air Force Eastern Test Range (AFETR)
Object type
Payload
Rocket body
Debris
Shape & HBR
Unknown shape, 0.1 m
Radar Cross Section
Small (<0.1 m²)

Expand to show TLE details & history
Last TLE update: 2 days ago

TLE from 2 days ago
0 DELTA 1 DEB
1 10198U 77065AB  25304.98633092  .00000544  00000-0  36478-3 0  9992
2 10198  29.5662 207.5578 0601783 226.7878 128.0886 13.29638109299230
Epoch: 2025-10-31T23:40Z
TLE epoch observation values (Epoch: 2025-10-31T23:40:18.991Z)
Latitude
-0.00002°
Longitude
171.95574°
Altitude
1,441.903 km
Speed
7.002 km/s
True Right ascension
13h 50m 13s
True Declination
0° 00' 00"
Sunlit
Object was in daylight at epoch
Visualization orbit readout
Latitude
Unknown
Longitude
Unknown
Altitude
Unknown
Speed
Unknown
Apparent Right ascension
Unknown
Apparent Declination
Unknown
Sunlit
N/A
Visualization observer readout
Local Sidereal Time
10:16:39
Azimuth
Unknown
Elevation
Unknown
Doppler factor
Unknown
Orbital elements
Apogee altitude
1,605.012 km
Perigee altitude
698.726 km
Semi-major axis
7,530.006 km
Eccentricity
0.06018
Inclination
29.5662°
RAAN
207.5578°
Arg. of periapsis
226.7878°
True anomaly
133.26799°
Mean anomaly
128.0886°
Eccentric anomaly
130.70252°
Mean motion
3.32162 °/min
Orbital period
108.38 mins
BSTAR
0.00036478
Loading maneuver chart data...
Computing Atmospheric mass density...

Documentation

Showing up to 5 results
|